Location: Neuvy Saint Sepulchre
(46.5953°N, 1.8122°E)
Time: 19:43:02
(UTC+01:00)

ISS - Pass Details

Date: 28 November 2021
Orbit: 417 x 422 km, 51.6° (Epoch: 06 December)

Event Time Altitude Azimuth Distance (km) Brightness Sun altitude
Rises 17:49:32 0° 267° (W) 2,373 1.6 -7.1°
Reaches altitude 10° 17:51:42 10° 275° (W) 1,510 0.2 -7.4°
Maximum altitude 17:54:57 41° 347° (NNW) 629 -2.9 -7.9°
Enters shadow 17:57:59 11° 58° (ENE) 1,436 -1.7 -8.4°
